[[[{"header":{"parameterUnit":"kt","parameterCategory":2,"dx":1,"dy":1,"la1":30.253999710083008,"la2":30.299108505249023,"lo1":-89.0895004272461,"lo2":-89.04439544677734,"nx":28,"ny":28,"refTime":"2022-10-21T21:00:00:Z","depth":"0","parameterNumber":2,"parameterNumberName":"U-component_of_CURRENTS"},"data":[-0.0587,-0.0601,-0.0546,-0.0466,-0.0493,-0.0558,-0.063,-0.0575,-0.0732,-0.098,-0.1311,-0.1598,-0.1708,-0.1887,-0.1703,-0.1573,-0.1532,-0.1524,-0.1481,-0.1584,-0.1607,-0.1629,-0.1581,-0.1416,-0.1416,-0.1406,-0.1406,-0.1406,-0.0572,-0.058,-0.0598,-0.0617,-0.0631,-0.0694,-0.0743,-0.0707,-0.0803,-0.1048,-0.1272,-0.1682,-0.1787,-0.1822,-0.1734,-0.1626,-0.1606,-0.1545,-0.1673,-0.1636,-0.1706,-0.1653,-0.1501,-0.1501,-0.1501,-0.1501,-0.1501,-0.1501,-0.0581,-0.0635,-0.07,-0.0705,-0.0765,-0.0771,-0.0769,-0.077,-0.0868,-0.1062,-0.1324,-0.1634,-0.1824,-0.1917,-0.1864,-0.172,-0.1822,-0.1726,-0.1774,-0.1842,-0.1742,-0.1649,-0.1685,-0.1685,-0.1685,-0.1686,-0.1686,0,-0.0578,-0.0639,-0.0711,-0.0766,-0.0782,-0.0802,-0.0808,-0.0838,-0.0921,-0.1067,-0.1333,-0.1527,-0.1762,-0.194,-0.1942,-0.195,-0.1964,-0.1957,-0.1931,-0.1957,-0.1876,-0.1806,-0.1887,-0.2024,-0.2026,-0.2028,-0.2029,-0.203,-0.0582,-0.0602,-0.0739,-0.0776,-0.0801,-0.084,-0.0845,-0.09,-0.0926,-0.1184,-0.127,-0.1498,-0.1689,-0.1945,-0.2015,-0.2071,-0.2087,-0.2016,-0.2044,-0.187,-0.1883,-0.192,-0.1859,-0.2055,-0.2052,-0.2049,-0.2047,0,-0.0582,-0.061,-0.0696,-0.0767,-0.0794,-0.085,-0.0883,-0.0914,-0.1032,-0.1169,-0.1222,-0.1496,-0.1689,-0.1812,-0.209,-0.2091,-0.219,-0.2206,-0.2052,-0.2032,-0.1869,-0.1877,-0.2054,-0.1992,-0.213,-0.2127,-0.2124,0,-0.0556,-0.0627,-0.0667,-0.0703,-0.0784,-0.0824,-0.0897,-0.0988,-0.1094,-0.1182,-0.132,-0.1481,-0.1716,-0.1861,-0.194,-0.2048,-0.2191,-0.2123,-0.2121,-0.2093,-0.2067,-0.1972,-0.1966,-0.241,-0.241,-0.241,-0.2409,0,-0.0509,-0.0615,-0.0664,-0.0697,-0.0779,-0.0817,-0.0859,-0.097,-0.103,-0.1207,-0.1275,-0.1496,-0.163,-0.18,-0.189,-0.1891,-0.2175,-0.22,-0.2094,-0.2075,-0.2009,-0.1973,-0.2201,-0.2409,-0.2409,-0.2409,-0.2409,0,-0.0483,-0.0511,-0.0609,-0.0667,-0.0692,-0.0763,-0.0852,-0.0948,-0.1091,-0.1141,-0.1285,-0.134,-0.1565,-0.1559,-0.1834,-0.1765,-0.1826,-0.1926,-0.1931,-0.1677,-0.1587,-0.1553,-0.1826,-0.1777,-0.1879,-0.1876,-0.1873,0,-0.0377,-0.046,-0.0482,-0.0598,-0.0638,-0.066,-0.0757,-0.0835,-0.0895,-0.1013,-0.1156,-0.1273,-0.1265,-0.1331,-0.1511,-0.1615,-0.1749,-0.1644,-0.1711,-0.1708,-0.1497,-0.1784,-0.1758,-0.1783,-0.1833,-0.1837,-0.184,0,-0.0297,-0.0332,-0.0361,-0.0385,-0.0449,-0.0484,-0.0596,-0.0679,-0.073,-0.0862,-0.0975,-0.1169,-0.1169,-0.1211,-0.1265,-0.1439,-0.1666,-0.1382,-0.1384,-0.1339,-0.1916,-0.1742,-0.1751,-0.1758,-0.1765,-0.1771,-0.1808,0,-0.0227,-0.0273,-0.029,-0.0349,-0.0381,-0.0424,-0.0484,-0.0531,-0.0541,-0.0581,-0.0745,-0.0838,-0.0914,-0.1012,-0.0987,-0.1231,-0.1141,-0.1153,-0.1012,-0.1259,-0.1234,-0.1261,-0.0874,-0.0868,-0.0864,-0.0861,0,0,-0.0147,-0.0189,-0.0159,-0.0212,-0.0234,-0.0205,-0.0273,-0.0308,-0.0353,-0.038,-0.0372,-0.0544,-0.0553,-0.0743,-0.0855,-0.086,-0.0869,-0.0765,-0.1138,-0.1169,-0.1198,-0.1188,-0.1218,-0.0853,-0.0851,-0.085,-0.0848,0,-0.0125,-0.0109,-0.0142,-0.0166,-0.0182,-0.0187,-0.0191,-0.021,-0.0225,-0.0309,-0.0304,-0.0405,-0.0434,-0.0525,-0.0557,-0.0787,-0.0675,-0.0809,-0.0935,-0.1097,-0.1135,-0.1167,-0.1166,-0.1196,-0.0838,-0.0839,-0.0839,0,-0.008,-0.0075,-0.0086,-0.0112,-0.0103,-0.0162,-0.0083,-0.0098,-0.0159,-0.0062,-0.0136,-0.016,-0.0173,-0.0309,-0.0345,-0.0276,-0.0503,-0.041,-0.0434,-0.037,-0.0526,-0.057,-0.061,-0.0093,-0.009,-0.0088,0,0,-0.0062,-0.0067,-0.0091,-0.0112,-0.012,-0.009,-0.0084,-0.0081,-0.0082,-0.0074,-0.0056,-0.007,-0.0126,-0.014,-0.0163,-0.0238,-0.0201,-0.0322,-0.0358,-0.0387,-0.0341,-0.0503,-0.0546,-0.008,-0.008,-0.008,0,0,-0.0054,-0.0064,-0.0057,-0.0091,-0.0105,-0.009,-0.0086,-0.0052,-0.005,-0.0043,0.002,0.0027,-0.0061,-0.0013,0.0081,-0.0139,0.0007,-0.0009,-0.0171,-0.0213,-0.0247,-0.019,0.0197,0,0,0,0,0,-0.0039,-0.0067,-0.0062,-0.0067,-0.0073,-0.0098,-0.0094,-0.0065,-0.0007,-0.0019,-0.0018,0.008,-0.0013,0.0074,0.0091,-0.0022,0.0024,0.0006,-0.0012,-0.0236,-0.0282,-0.0321,0,0,0,0,0,0,-0.0042,-0.0051,-0.0061,-0.0053,-0.0054,-0.0096,-0.0045,-0.0036,-0.0008,-0.0002,0.0069,0.0081,0.0108,0.0075,0.0088,-0.0024,0.0193,0.0017,0.0001,-0.0013,-0.0252,-0.029,-0.0322,0,0,0,0,0,-0.0044,-0.0051,-0.0077,-0.005,-0.0051,-0.0023,-0.0044,-0.0037,0.0001,0.0038,0.0051,0.0021,0.0106,0.012,0.0084,-0.0034,0.0185,0.0189,0.0007,-0.0006,-0.0017,-0.0271,0,0,0,0,0,0,-0.0045,-0.0023,-0.0075,-0.0073,-0.0047,-0.002,-0.0018,-0.0037,0.0042,0.0052,-0.001,-0.0007,0.0105,0.0116,0.0127,-0.0048,0.0178,0.0183,0.0185,-0.0003,-0.0012,-0.0021,0,0,0,0,0,0,-0.0019,-0.0022,-0.0074,-0.0071,-0.0068,-0.0017,-0.0016,0.0027,0.0044,-0.0008,-0.0005,-0.001,0.0097,0.0113,0.0122,0.0188,0.0173,0.0177,0.018,0.0182,-0.0011,-0.0018,0,0,0,0,0,0,-0.0019,-0.002,-0.0071,-0.0069,-0.0066,-0.003,0.0026,0.0028,0.0012,-0.001,0.0014,0.0015,0.0094,0.0103,0.0118,0.018,0.0186,0.0173,0.0176,0.0178,0.0179,0,0,0,0,0,0,0,-0.0018,-0.0026,-0.0098,-0.0067,-0.0064,-0.0052,-0.005,-0.0049,0.0013,0.0013,0.0014,0.0015,0.0148,0.0153,0.0158,0.0174,0,0,0.0173,0.0175,0,0,0,0,0,0,0,0,-0.0023,-0.0025,-0.0098,-0.0098,-0.0098,-0.0052,-0.005,-0.0049,0.0013,0.0013,0.0014,0.0014,0.015,0.0153,0.0157,0,0,0,0,0,0,0,0,0,0,0,0,0,0,0,-0.0098,-0.0098,0,-0.0051,-0.005,-0.0049,0.0013,0.0013,0.0014,0.0014,0.0151,0.0154,0.0157,0,0,0,0,0,0,0,0,0,0,0,0,0,0,0,0,0,0,0,0,0,0,0,0,0,0,0,0,0,0,0,0,0,0,0,0,0,0,0,0,0,0,0,0,0,0,0,0,0,0,0,0,0,0,0,0,0,0,0,0,0,0,0,0,0,0,0,0,0]}],[{"header":{"parameterUnit":"kt","parameterCategory":2,"dx":1,"dy":1,"la1":30.253999710083008,"la2":30.299108505249023,"lo1":-89.0895004272461,"lo2":-89.04439544677734,"nx":28,"ny":28,"refTime":"2022-10-21T21:00:00:Z","depth":"0","parameterNumber":3,"parameterNumberName":"V-component_of_CURRENTS"},"data":[0.0824,0.0632,0.0579,0.0389,0.0305,0.0126,0.0019,-0.0004,0.0004,0.0106,0.0304,0.0619,0.1227,0.217,0.2686,0.2769,0.3012,0.3044,0.3232,0.288,0.2861,0.2843,0.2826,0.303,0.3031,0.3532,0.3537,0.3541,0.0878,0.0767,0.0621,0.0428,0.0341,0.0403,0.0335,0.0242,0.0087,0.0206,0.0252,0.0684,0.1219,0.1672,0.228,0.2568,0.2649,0.2713,0.2753,0.2834,0.2445,0.2412,0.2531,0.2531,0.2531,0.253,0.253,0.253,0.0997,0.0872,0.0631,0.0525,0.0478,0.0496,0.0403,0.0445,0.0374,0.0335,0.0409,0.048,0.0974,0.1656,0.1897,0.2288,0.2395,0.2462,0.2563,0.2628,0.2714,0.2321,0.2427,0.2428,0.2428,0.2429,0.2429,0,0.1093,0.093,0.0792,0.0678,0.065,0.066,0.0719,0.067,0.0707,0.0658,0.057,0.0602,0.0914,0.1208,0.1756,0.1988,0.2252,0.2237,0.2327,0.239,0.248,0.2643,0.2223,0.2229,0.2229,0.2229,0.2228,0.2228,0.1122,0.1033,0.0889,0.0832,0.0871,0.084,0.0872,0.0964,0.0944,0.0894,0.0845,0.0903,0.0958,0.1265,0.1574,0.196,0.2148,0.2209,0.2244,0.2342,0.2505,0.2581,0.2669,0.2223,0.2224,0.2224,0.2225,0,0.1095,0.1109,0.1009,0.1012,0.107,0.0992,0.1078,0.1039,0.1089,0.1014,0.1011,0.1042,0.1124,0.1336,0.1536,0.1727,0.2032,0.2093,0.2033,0.2103,0.2379,0.247,0.2625,0.2737,0.2326,0.2328,0.233,0,0.1183,0.1172,0.1185,0.1162,0.1137,0.1188,0.1154,0.1234,0.1244,0.1191,0.1277,0.1211,0.1341,0.1413,0.1611,0.1817,0.1764,0.2064,0.2146,0.2094,0.21,0.2263,0.2364,0.2009,0.2008,0.2007,0.2006,0,0.1191,0.1287,0.1254,0.1276,0.1337,0.1345,0.1393,0.143,0.1439,0.1434,0.1422,0.1405,0.1383,0.1513,0.1689,0.1709,0.1794,0.1875,0.2123,0.2134,0.2183,0.22,0.2154,0.2005,0.2004,0.2004,0.2004,0,0.1325,0.1368,0.135,0.1398,0.1402,0.1447,0.1465,0.1512,0.1538,0.1584,0.1564,0.1608,0.1556,0.1677,0.1733,0.1708,0.1877,0.1963,0.1973,0.2123,0.2273,0.2237,0.2198,0.2285,0.2163,0.2164,0.2164,0,0.1334,0.1391,0.1486,0.1508,0.1502,0.161,0.1654,0.1699,0.1771,0.1779,0.1795,0.1812,0.1887,0.1873,0.187,0.1921,0.1976,0.1954,0.2205,0.2213,0.218,0.2136,0.2083,0.2198,0.2165,0.2165,0.2165,0,0.134,0.146,0.1483,0.1492,0.1651,0.1645,0.1735,0.1774,0.177,0.1914,0.186,0.195,0.1954,0.2002,0.2042,0.205,0.1995,0.2147,0.2155,0.2102,0.207,0.2136,0.2143,0.2035,0.2033,0.2031,0.2166,0,0.1403,0.1468,0.1493,0.1607,0.1635,0.1685,0.1749,0.184,0.1928,0.1984,0.2011,0.2129,0.2195,0.2229,0.2272,0.2216,0.2293,0.2359,0.2375,0.2346,0.2431,0.2428,0.2527,0.2532,0.2536,0.2539,0,0,0.1411,0.1474,0.1543,0.1608,0.1626,0.1716,0.1725,0.183,0.1986,0.1999,0.2076,0.2242,0.2329,0.2305,0.2322,0.2431,0.2482,0.2398,0.2415,0.24,0.2387,0.2459,0.2452,0.2547,0.2548,0.2549,0.2551,0,0.1438,0.151,0.1537,0.1585,0.1659,0.1733,0.1722,0.1844,0.192,0.2044,0.2116,0.2155,0.2365,0.2397,0.2435,0.2478,0.2524,0.2548,0.2422,0.2448,0.2428,0.2411,0.2476,0.2467,0.256,0.256,0.2559,0,0.1455,0.1533,0.1524,0.1613,0.167,0.1711,0.1749,0.1817,0.1867,0.1989,0.2151,0.2218,0.2345,0.2437,0.2485,0.2524,0.2584,0.2602,0.259,0.2553,0.2582,0.2562,0.2544,0.2744,0.2743,0.2742,0,0,0.15,0.1551,0.1574,0.1607,0.1619,0.1711,0.1759,0.1824,0.1927,0.2,0.2116,0.2259,0.2323,0.2381,0.2499,0.2589,0.2641,0.2604,0.2596,0.2588,0.2546,0.2573,0.2557,0.2737,0.2737,0.2737,0,0,0.1498,0.1544,0.1556,0.1603,0.1635,0.175,0.181,0.1855,0.2011,0.2046,0.2142,0.2173,0.2243,0.2371,0.2296,0.2476,0.2543,0.2559,0.2311,0.2303,0.2295,0.2198,0.2332,0,0,0,0,0,0.1484,0.1519,0.1528,0.1535,0.1673,0.1727,0.1761,0.1869,0.1904,0.1954,0.2083,0.2099,0.2391,0.2326,0.2352,0.2307,0.2673,0.2685,0.2695,0.2401,0.2391,0.2383,0,0,0,0,0,0,0.1486,0.1495,0.1526,0.1622,0.1651,0.1731,0.1806,0.1844,0.1902,0.1917,0.2085,0.2104,0.2195,0.2316,0.2339,0.2293,0.2325,0.2678,0.2687,0.2696,0.2397,0.2389,0.2383,0,0,0,0,0,0.1488,0.1495,0.1666,0.1629,0.1655,0.1781,0.1807,0.1839,0.1933,0.2031,0.2059,0.1991,0.2194,0.2217,0.233,0.228,0.2309,0.2318,0.2684,0.2692,0.2698,0.2394,0,0,0,0,0,0,0.149,0.1615,0.1678,0.1692,0.1597,0.1784,0.1812,0.1833,0.205,0.2072,0.1938,0.1946,0.2194,0.2213,0.223,0.2269,0.2296,0.2305,0.231,0.269,0.2696,0.2701,0,0,0,0,0,0,0.1608,0.1627,0.1688,0.1641,0.1654,0.1785,0.1808,0.1896,0.2049,0.1956,0.1963,0.1938,0.2099,0.2209,0.2223,0.2366,0.2287,0.2295,0.2301,0.2304,0.2695,0.2699,0,0,0,0,0,0,0.162,0.1637,0.1641,0.1651,0.1662,0.1868,0.1867,0.1988,0.2054,0.1946,0.2051,0.2049,0.2088,0.211,0.2218,0.2355,0.2363,0.2287,0.2293,0.2297,0.2299,0,0,0,0,0,0,0,0.163,0.1468,0.1541,0.1659,0.167,0.1816,0.1825,0.1834,0.2054,0.2053,0.2051,0.205,0.224,0.2249,0.2258,0.2346,0,0,0.2286,0.229,0,0,0,0,0,0,0,0,0.1466,0.1468,0.1541,0.1541,0.1541,0.1817,0.1825,0.1832,0.2054,0.2053,0.2051,0.205,0.2243,0.225,0.2257,0,0,0,0,0,0,0,0,0,0,0,0,0,0,0,0.1541,0.1541,0,0.1818,0.1824,0.183,0.2054,0.2053,0.2052,0.2051,0.2245,0.225,0.2257,0,0,0,0,0,0,0,0,0,0,0,0,0,0,0,0,0,0,0,0,0,0,0,0,0,0,0,0,0,0,0,0,0,0,0,0,0,0,0,0,0,0,0,0,0,0,0,0,0,0,0,0,0,0,0,0,0,0,0,0,0,0,0,0,0,0,0,0,0]}]],[[{"header":{"parameterUnit":"kt","parameterCategory":2,"dx":1,"dy":1,"la1":30.253999710083008,"la2":30.299108505249023,"lo1":-89.0895004272461,"lo2":-89.04439544677734,"nx":28,"ny":28,"refTime":"2022-10-21T21:00:00:Z","depth":"2","parameterNumber":2,"parameterNumberName":"U-component_of_CURRENTS"},"data":[-0.5418,-0.538,-0.5401,-0.519,-0.5099,-0.4854,-0.4733,-0.4402,-0.3984,-0.328,-0.2616,-0.2208,-0.2,-0.1369,-0.1306,-0.1122,-0.143,-0.1073,-0.2155,-0.1976,-0.2043,-0.2219,-0.2073,0,0,0,0,0,-0.5514,-0.551,-0.5507,-0.5456,-0.5359,-0.541,-0.5356,-0.5151,-0.491,-0.4469,-0.4083,-0.306,-0.2517,-0.2261,-0.1734,-0.173,-0.1625,-0.1833,-0.163,-0.1704,-0.1772,-0.1629,-0.1031,-0.1029,-0.1027,-0.1026,0,0,-0.5652,-0.5647,-0.5627,-0.5622,-0.5621,-0.5612,-0.5514,-0.5514,-0.5415,-0.5051,-0.5048,-0.4394,-0.3994,-0.2977,-0.2791,-0.2623,-0.2862,-0.2761,-0.2781,-0.2812,-0.2725,-0.2774,-0.2416,-0.2422,-0.2428,-0.2433,-0.2438,0,-0.5776,-0.5731,-0.5767,-0.5777,-0.575,-0.5802,-0.5769,-0.5766,-0.5737,-0.5632,-0.5444,-0.5233,-0.4692,-0.4004,-0.3612,-0.3385,-0.3466,-0.3263,-0.4014,-0.2867,-0.2918,-0.2903,-0.2954,-0.2595,-0.2604,-0.2609,-0.2614,-0.2617,-0.5778,-0.5833,-0.589,-0.5894,-0.5895,-0.5894,-0.5883,-0.5908,-0.5854,-0.5759,-0.5672,-0.5423,-0.5137,-0.4705,-0.4228,-0.3873,-0.4086,-0.3441,-0.3306,-0.4064,-0.4049,-0.4065,-0.408,-0.2703,-0.2692,-0.2683,-0.2676,0,-0.5763,-0.5864,-0.5947,-0.6031,-0.604,-0.6013,-0.6014,-0.5972,-0.5907,-0.5776,-0.5706,-0.5529,-0.5227,-0.496,-0.4565,-0.4415,-0.4153,-0.4051,-0.3646,-0.3564,-0.4081,-0.4094,-0.3928,-0.3926,-0.3925,-0.3923,-0.3922,0,-0.5811,-0.5863,-0.5989,-0.6029,-0.6053,-0.6103,-0.6036,-0.6,-0.5907,-0.5811,-0.5663,-0.5521,-0.5154,-0.4933,-0.4705,-0.4386,-0.4372,-0.4129,-0.4095,-0.3666,-0.3634,-0.4135,-0.4144,-0.4058,-0.4058,-0.4058,-0.4058,0,-0.5721,-0.594,-0.6023,-0.606,-0.6178,-0.6123,-0.6118,-0.6015,-0.5973,-0.578,-0.5694,-0.5423,-0.5211,-0.4975,-0.4656,-0.4635,-0.4314,-0.4278,-0.4137,-0.4141,-0.3639,-0.3603,-0.4058,-0.4059,-0.4059,-0.4059,-0.4059,0,-0.5739,-0.5906,-0.6042,-0.6135,-0.6156,-0.6161,-0.6075,-0.6075,-0.5912,-0.5804,-0.5583,-0.5407,-0.5143,-0.5017,-0.4672,-0.4706,-0.4534,-0.438,-0.4375,-0.4304,-0.4302,-0.3829,-0.3657,-0.4374,-0.4376,-0.4378,-0.4379,0,-0.5562,-0.5834,-0.5929,-0.603,-0.6127,-0.6054,-0.6066,-0.599,-0.5869,-0.5743,-0.5495,-0.5325,-0.5173,-0.501,-0.4847,-0.4618,-0.451,-0.4578,-0.436,-0.4357,-0.4349,-0.4289,-0.3778,-0.371,-0.4403,-0.44,-0.4399,0,-0.5453,-0.5727,-0.5725,-0.5781,-0.5865,-0.5909,-0.5905,-0.587,-0.5794,-0.5637,-0.5517,-0.529,-0.5104,-0.5012,-0.4833,-0.4679,-0.4562,-0.4576,-0.4567,-0.4592,-0.4352,-0.433,-0.4313,-0.4444,-0.444,-0.4437,-0.4417,0,-0.5399,-0.5498,-0.5586,-0.5798,-0.5821,-0.5857,-0.5848,-0.5782,-0.5648,-0.5574,-0.5372,-0.5208,-0.502,-0.4929,-0.485,-0.4665,-0.4662,-0.4598,-0.4555,-0.4527,-0.4531,-0.4517,-0.4668,-0.4667,-0.4666,-0.4665,0,0,-0.5155,-0.5389,-0.551,-0.5657,-0.5662,-0.5587,-0.5656,-0.563,-0.5547,-0.5466,-0.5377,-0.5113,-0.4987,-0.4838,-0.4781,-0.4763,-0.4704,-0.4679,-0.4555,-0.4544,-0.4533,-0.4534,-0.4521,-0.4663,-0.4663,-0.4663,-0.4662,0,-0.523,-0.5289,-0.5486,-0.5535,-0.5581,-0.5585,-0.5574,-0.5556,-0.5458,-0.5426,-0.5246,-0.508,-0.498,-0.4838,-0.477,-0.4763,-0.464,-0.4684,-0.4675,-0.4551,-0.4541,-0.4532,-0.4532,-0.4521,-0.466,-0.466,-0.466,0,-0.5149,-0.529,-0.5377,-0.5522,-0.5525,-0.5596,-0.5478,-0.547,-0.5459,-0.5296,-0.5191,-0.5058,-0.4937,-0.4842,-0.4773,-0.4748,-0.4602,-0.4641,-0.4644,-0.4632,-0.4501,-0.4491,-0.4482,-0.46,-0.46,-0.4601,0,0,-0.5193,-0.5386,-0.5457,-0.5531,-0.5553,-0.5517,-0.5506,-0.5427,-0.5374,-0.5309,-0.5178,-0.5029,-0.4939,-0.485,-0.4776,-0.473,-0.4678,-0.4638,-0.4641,-0.4644,-0.4633,-0.4505,-0.4495,-0.4602,-0.4602,-0.4602,0,0,-0.5173,-0.5393,-0.5361,-0.5472,-0.5493,-0.5515,-0.5494,-0.5419,-0.5318,-0.5225,-0.5087,-0.5044,-0.492,-0.4855,-0.4886,-0.4688,-0.467,-0.4665,-0.4731,-0.4733,-0.4736,-0.4737,-0.4731,0,0,0,0,0,-0.5327,-0.5414,-0.5387,-0.5407,-0.5491,-0.5573,-0.5569,-0.5432,-0.5299,-0.5292,-0.515,-0.5029,-0.4814,-0.4842,-0.4827,-0.4737,-0.4614,-0.4612,-0.461,-0.4685,-0.4688,-0.4691,0,0,0,0,0,0,-0.5336,-0.5371,-0.5383,-0.5433,-0.5447,-0.5571,-0.5408,-0.5375,-0.5293,-0.5256,-0.5072,-0.503,-0.4937,-0.4841,-0.4829,-0.4744,-0.4735,-0.4614,-0.4612,-0.461,-0.4686,-0.4689,-0.4691,0,0,0,0,0,-0.5342,-0.537,-0.5544,-0.5425,-0.5438,-0.5307,-0.5398,-0.5368,-0.527,-0.5154,-0.5105,-0.5147,-0.4948,-0.4919,-0.4833,-0.475,-0.4742,-0.4738,-0.4612,-0.4611,-0.4609,-0.4687,0,0,0,0,0,0,-0.5346,-0.5334,-0.5542,-0.5538,-0.5324,-0.5289,-0.5284,-0.5363,-0.5164,-0.5125,-0.523,-0.5205,-0.4959,-0.4933,-0.4913,-0.4754,-0.4748,-0.4744,-0.4742,-0.4611,-0.461,-0.4609,0,0,0,0,0,0,-0.5316,-0.5333,-0.554,-0.542,-0.5401,-0.5273,-0.5269,-0.5265,-0.5158,-0.5248,-0.5224,-0.522,-0.4926,-0.4946,-0.4928,-0.4933,-0.4753,-0.4749,-0.4746,-0.4745,-0.461,-0.4609,0,0,0,0,0,0,-0.532,-0.5333,-0.542,-0.5406,-0.5388,-0.5333,-0.5256,-0.5307,-0.5181,-0.5255,-0.5152,-0.5139,-0.4939,-0.4921,-0.494,-0.4955,-0.4938,-0.4753,-0.475,-0.4748,-0.4747,0,0,0,0,0,0,0,-0.5322,-0.528,-0.5565,-0.5394,-0.5378,-0.5501,-0.55,-0.5499,-0.5179,-0.5167,-0.5155,-0.5144,-0.4775,-0.4771,-0.4766,-0.4973,0,0,-0.4753,-0.4751,0,0,0,0,0,0,0,0,-0.5269,-0.5277,-0.5565,-0.5564,-0.5563,-0.5501,-0.55,-0.5499,-0.5177,-0.5167,-0.5158,-0.5149,-0.4774,-0.477,-0.4767,0,0,0,0,0,0,0,0,0,0,0,0,0,0,0,-0.5565,-0.5564,0,-0.5501,-0.55,-0.55,-0.5175,-0.5167,-0.516,-0.5152,-0.4773,-0.477,-0.4767,0,0,0,0,0,0,0,0,0,0,0,0,0,0,0,0,0,0,0,0,0,0,0,0,0,0,0,0,0,0,0,0,0,0,0,0,0,0,0,0,0,0,0,0,0,0,0,0,0,0,0,0,0,0,0,0,0,0,0,0,0,0,0,0,0,0,0,0,0]}],[{"header":{"parameterUnit":"kt","parameterCategory":2,"dx":1,"dy":1,"la1":30.253999710083008,"la2":30.299108505249023,"lo1":-89.0895004272461,"lo2":-89.04439544677734,"nx":28,"ny":28,"refTime":"2022-10-21T21:00:00:Z","depth":"2","parameterNumber":3,"parameterNumberName":"V-component_of_CURRENTS"},"data":[-0.2677,-0.2836,-0.288,-0.2962,-0.2924,-0.2859,-0.2741,-0.2427,-0.2116,-0.1656,-0.1364,-0.1248,-0.0821,-0.0533,-0.0233,0.0054,0.0168,0.012,0.0078,-0.0076,-0.0067,0.0134,0.0009,0,0,0,0,0,-0.2562,-0.2623,-0.27,-0.2714,-0.2705,-0.2596,-0.2403,-0.2262,-0.1995,-0.1637,-0.1338,-0.0991,-0.0729,-0.0372,-0.0071,0.0182,0.0166,0.0389,0.0295,0.0298,0.0303,0.0233,0.0257,0.0261,0.0264,0.0267,0,0,-0.2368,-0.2436,-0.245,-0.2492,-0.2445,-0.2366,-0.2296,-0.2086,-0.1841,-0.1496,-0.1249,-0.0935,-0.0704,-0.0358,-0.0044,0.0226,0.0174,0.0333,0.0333,0.0336,0.0265,0.0148,0.0298,0.03,0.0301,0.0303,0.0304,0,-0.2206,-0.2202,-0.2189,-0.2227,-0.2214,-0.2117,-0.2005,-0.1902,-0.1584,-0.1358,-0.1058,-0.0869,-0.0554,-0.0342,-0.0029,0.0116,0.0273,0.0336,0.0476,0.0178,0.0051,0.0022,0.0004,0.0202,0.0203,0.0204,0.0205,0.0205,-0.2034,-0.2047,-0.1964,-0.198,-0.196,-0.1895,-0.1833,-0.1573,-0.146,-0.1108,-0.105,-0.0766,-0.0586,-0.0196,-0.0035,0.0205,0.0353,0.0354,0.0347,0.0358,0.0335,0.0306,0.0279,0.0221,0.0219,0.0217,0.0216,0,-0.1946,-0.1873,-0.1856,-0.1728,-0.1693,-0.1688,-0.1516,-0.1429,-0.1224,-0.1084,-0.1032,-0.0745,-0.0538,-0.0356,-0.0051,0.0062,0.028,0.0384,0.0126,0.0107,0.0286,0.026,0.0562,0.0563,0.0565,0.0566,0.0567,0,-0.1782,-0.1772,-0.1669,-0.1671,-0.162,-0.1498,-0.1414,-0.1297,-0.1112,-0.1004,-0.0837,-0.072,-0.0529,-0.0365,-0.0214,0.0014,0.0058,0.0218,0.0227,0.0063,0.004,0.0105,0.0079,0.0318,0.0317,0.0316,0.0315,0,-0.1716,-0.1627,-0.1611,-0.1589,-0.1457,-0.1418,-0.1346,-0.1184,-0.1082,-0.0921,-0.085,-0.0677,-0.0602,-0.0407,-0.0251,-0.0279,0.0028,0.001,0.0147,0.014,0.0065,0.0043,0.0314,0.0313,0.0313,0.0313,0.0312,0,-0.1623,-0.156,-0.1556,-0.1425,-0.1402,-0.1399,-0.1236,-0.1175,-0.1014,-0.0961,-0.0856,-0.0805,-0.0616,-0.0623,-0.0348,-0.0454,-0.0302,-0.0206,-0.0198,-0.0195,-0.0283,-0.0317,-0.0157,-0.0193,-0.0197,-0.02,-0.0204,0,-0.1552,-0.1514,-0.145,-0.1439,-0.1417,-0.1329,-0.1262,-0.1181,-0.1124,-0.1041,-0.0937,-0.0873,-0.0862,-0.0818,-0.0664,-0.0554,-0.0386,-0.0519,-0.0325,-0.032,-0.0366,-0.0183,-0.0342,-0.0212,-0.025,-0.0246,-0.0242,0,-0.1501,-0.1426,-0.143,-0.1397,-0.1335,-0.1309,-0.1265,-0.1169,-0.1109,-0.1127,-0.1036,-0.0947,-0.0912,-0.0864,-0.0804,-0.0654,-0.0473,-0.0666,-0.066,-0.0631,-0.0229,-0.0252,-0.0223,-0.0448,-0.0441,-0.0436,-0.0279,0,-0.1377,-0.1365,-0.1369,-0.1321,-0.1296,-0.1302,-0.124,-0.1225,-0.1237,-0.1197,-0.1136,-0.1104,-0.1032,-0.1003,-0.0982,-0.0786,-0.0829,-0.0826,-0.0834,-0.072,-0.0676,-0.0647,-0.1006,-0.1006,-0.1007,-0.1008,0,0,-0.1319,-0.1298,-0.126,-0.1233,-0.1213,-0.1197,-0.1197,-0.1175,-0.1193,-0.1152,-0.1231,-0.1162,-0.1158,-0.1021,-0.0975,-0.1,-0.0962,-0.1009,-0.0795,-0.0772,-0.075,-0.07,-0.0671,-0.1009,-0.1009,-0.1009,-0.101,0,-0.1253,-0.1229,-0.125,-0.1223,-0.1194,-0.116,-0.1179,-0.1161,-0.1158,-0.1196,-0.1181,-0.1151,-0.1211,-0.1114,-0.1085,-0.1023,-0.1025,-0.1041,-0.0946,-0.0806,-0.0782,-0.0761,-0.0708,-0.0681,-0.1011,-0.1011,-0.1011,0,-0.1187,-0.1133,-0.1171,-0.1109,-0.1102,-0.1091,-0.1081,-0.1104,-0.1099,-0.114,-0.1184,-0.1192,-0.1171,-0.1155,-0.1166,-0.1167,-0.1051,-0.1139,-0.1133,-0.1101,-0.0957,-0.093,-0.0906,-0.1214,-0.1215,-0.1216,0,0,-0.1121,-0.1134,-0.1082,-0.1095,-0.1083,-0.1069,-0.1072,-0.1083,-0.1099,-0.1122,-0.1164,-0.1182,-0.1173,-0.1191,-0.1207,-0.1202,-0.115,-0.1166,-0.1156,-0.1149,-0.1113,-0.0968,-0.0942,-0.1219,-0.1219,-0.1219,0,0,-0.111,-0.1074,-0.1074,-0.1068,-0.1053,-0.1013,-0.1035,-0.1041,-0.1083,-0.1123,-0.1151,-0.117,-0.1212,-0.1215,-0.1256,-0.1189,-0.1222,-0.1217,-0.1201,-0.119,-0.118,-0.1136,-0.128,0,0,0,0,0,-0.1066,-0.107,-0.1069,-0.1065,-0.1028,-0.1001,-0.0998,-0.1013,-0.1047,-0.1064,-0.111,-0.1147,-0.1208,-0.1247,-0.1262,-0.1228,-0.1263,-0.1255,-0.1248,-0.1228,-0.1216,-0.1205,0,0,0,0,0,0,-0.1064,-0.1055,-0.1069,-0.1025,-0.1017,-0.1,-0.1009,-0.1011,-0.1047,-0.1055,-0.1129,-0.1146,-0.1162,-0.1243,-0.1255,-0.1221,-0.1276,-0.126,-0.1254,-0.1248,-0.1224,-0.1214,-0.1205,0,0,0,0,0,-0.1062,-0.1055,-0.0999,-0.1025,-0.1018,-0.1027,-0.1011,-0.1014,-0.1056,-0.1084,-0.1101,-0.1079,-0.1158,-0.1176,-0.1251,-0.1213,-0.1267,-0.1272,-0.1256,-0.1251,-0.1246,-0.1219,0,0,0,0,0,0,-0.106,-0.1051,-0.0998,-0.0996,-0.1054,-0.1031,-0.103,-0.1016,-0.1087,-0.1099,-0.1031,-0.1037,-0.1155,-0.117,-0.1183,-0.1206,-0.1261,-0.1265,-0.1268,-0.1252,-0.1248,-0.1244,0,0,0,0,0,0,-0.1055,-0.1049,-0.0996,-0.1032,-0.1034,-0.1035,-0.1033,-0.1071,-0.1092,-0.1032,-0.1036,-0.1034,-0.1182,-0.1165,-0.1176,-0.1229,-0.1255,-0.126,-0.1263,-0.1265,-0.1249,-0.1245,0,0,0,0,0,0,-0.1052,-0.1047,-0.1033,-0.1034,-0.1036,-0.1013,-0.1074,-0.1066,-0.103,-0.1032,-0.1038,-0.1042,-0.118,-0.1189,-0.117,-0.1218,-0.1226,-0.1256,-0.1258,-0.1261,-0.1262,0,0,0,0,0,0,0,-0.105,-0.1083,-0.1012,-0.1036,-0.1038,-0.0977,-0.0977,-0.0976,-0.1031,-0.1034,-0.1037,-0.104,-0.123,-0.1235,-0.124,-0.1208,0,0,-0.1255,-0.1257,0,0,0,0,0,0,0,0,-0.1085,-0.1083,-0.1012,-0.1011,-0.1011,-0.0977,-0.0977,-0.0976,-0.1032,-0.1034,-0.1037,-0.1039,-0.1232,-0.1236,-0.124,0,0,0,0,0,0,0,0,0,0,0,0,0,0,0,-0.1012,-0.1011,0,-0.0977,-0.0977,-0.0976,-0.1032,-0.1034,-0.1036,-0.1038,-0.1233,-0.1236,-0.1239,0,0,0,0,0,0,0,0,0,0,0,0,0,0,0,0,0,0,0,0,0,0,0,0,0,0,0,0,0,0,0,0,0,0,0,0,0,0,0,0,0,0,0,0,0,0,0,0,0,0,0,0,0,0,0,0,0,0,0,0,0,0,0,0,0,0,0,0,0]}]],[[{"header":{"parameterUnit":"kt","parameterCategory":2,"dx":1,"dy":1,"la1":30.253999710083008,"la2":30.299108505249023,"lo1":-89.0895004272461,"lo2":-89.04439544677734,"nx":28,"ny":28,"refTime":"2022-10-21T21:00:00:Z","depth":"4","parameterNumber":2,"parameterNumberName":"U-component_of_CURRENTS"},"data":[-0.1417,-0.141,-0.142,-0.1224,-0.1147,-0.1091,-0.1145,-0.1314,-0.1281,-0.1505,-0.1432,-0.1653,-0.1565,-0.1677,-0.1541,-0.1564,-0.1915,-0.176,-0.1756,-0.2459,-0.2506,-0.2548,-0.2439,0,0,0,0,0,-0.1495,-0.1474,-0.1466,-0.1442,-0.1404,-0.1403,-0.152,-0.1656,-0.1866,-0.1724,-0.1847,-0.1761,-0.1703,-0.1729,-0.1602,-0.1836,-0.2113,-0.1696,-0.2289,-0.2488,-0.2541,-0.2417,0,0,0,0,0,0,-0.1613,-0.1599,-0.1657,-0.1662,-0.1652,-0.1598,-0.1709,-0.1745,-0.1795,-0.2037,-0.1958,-0.2031,-0.2232,-0.2136,-0.2014,-0.1979,-0.2095,-0.2218,-0.2281,-0.2332,-0.2184,-0.194,-0.1535,0,0,0,0,0,-0.1715,-0.1778,-0.1823,-0.1836,-0.1879,-0.1903,-0.2014,-0.2008,-0.2217,-0.2404,-0.233,-0.2337,-0.2339,-0.2435,-0.2337,-0.232,-0.2897,-0.2682,-0.2717,-0.2942,-0.281,-0.2802,-0.2825,-0.2738,-0.2745,-0.2749,-0.2751,0,-0.1866,-0.1873,-0.1998,-0.2008,-0.2069,-0.218,-0.2205,-0.2396,-0.2442,-0.2617,-0.261,-0.2741,-0.2846,-0.2677,-0.2877,-0.2836,-0.2796,-0.2813,-0.3051,-0.2893,-0.2871,-0.2882,-0.289,-0.2793,-0.279,-0.2787,-0.2783,0,-0.1932,-0.2019,-0.2057,-0.2188,-0.2226,-0.2281,-0.2423,-0.2459,-0.2652,-0.2723,-0.2811,-0.3041,-0.3119,-0.3247,-0.3403,-0.339,-0.3317,-0.3159,-0.3457,-0.3444,-0.297,-0.2961,-0.2862,-0.2847,-0.2834,-0.2823,-0.2814,0,-0.2041,-0.2082,-0.2204,-0.2231,-0.2269,-0.2396,-0.2471,-0.2573,-0.2706,-0.276,-0.3023,-0.3043,-0.3455,-0.3498,-0.3545,-0.3444,-0.3682,-0.3381,-0.3344,-0.377,-0.3759,-0.3647,-0.3621,-0.3883,-0.3883,-0.3884,-0.3884,0,-0.2078,-0.2178,-0.2211,-0.2252,-0.2341,-0.2407,-0.2491,-0.2624,-0.2678,-0.2902,-0.2959,-0.3213,-0.3383,-0.35,-0.357,-0.3661,-0.3693,-0.3828,-0.3411,-0.3378,-0.3639,-0.3612,-0.3884,-0.3885,-0.3885,-0.3885,-0.3885,0,-0.2138,-0.2175,-0.2233,-0.2307,-0.233,-0.2396,-0.25,-0.2589,-0.2752,-0.2828,-0.3002,-0.311,-0.3341,-0.334,-0.3591,-0.3587,-0.3609,-0.3646,-0.3647,-0.3118,-0.304,-0.34,-0.3581,-0.358,-0.3578,-0.3577,-0.3576,0,-0.214,-0.2204,-0.2232,-0.2308,-0.2331,-0.2415,-0.2481,-0.2592,-0.2677,-0.2788,-0.2936,-0.3077,-0.3159,-0.3254,-0.3367,-0.3502,-0.3536,-0.3493,-0.3451,-0.3444,-0.3116,-0.3188,-0.3606,-0.3555,-0.3557,-0.3559,-0.3561,0,-0.2125,-0.2183,-0.2205,-0.2238,-0.2322,-0.2357,-0.2452,-0.2547,-0.2607,-0.2751,-0.2843,-0.3043,-0.312,-0.3133,-0.3213,-0.3287,-0.3489,-0.3282,-0.3279,-0.3317,-0.3639,-0.3212,-0.3183,-0.3587,-0.3591,-0.3594,-0.3546,0,-0.2125,-0.2166,-0.2184,-0.2247,-0.2292,-0.2337,-0.241,-0.2486,-0.2543,-0.261,-0.278,-0.2878,-0.2958,-0.3003,-0.3036,-0.3193,-0.3129,-0.3133,-0.3041,-0.3156,-0.3101,-0.3115,-0.2875,-0.2869,-0.2865,-0.2861,0,0,-0.2111,-0.2123,-0.2154,-0.2199,-0.2237,-0.2281,-0.232,-0.2377,-0.2478,-0.2538,-0.2541,-0.2711,-0.2757,-0.2892,-0.2946,-0.2946,-0.2944,-0.288,-0.3057,-0.308,-0.31,-0.3061,-0.3079,-0.2852,-0.285,-0.2848,-0.2847,0,-0.208,-0.2115,-0.2135,-0.2185,-0.2248,-0.2264,-0.2288,-0.2346,-0.2387,-0.2499,-0.2541,-0.2655,-0.2705,-0.2751,-0.2768,-0.2886,-0.2829,-0.2863,-0.2919,-0.3015,-0.3045,-0.307,-0.3038,-0.3058,-0.2835,-0.2836,-0.2836,0,-0.2071,-0.2092,-0.2109,-0.216,-0.2192,-0.2232,-0.2227,-0.2274,-0.2324,-0.234,-0.2443,-0.2516,-0.2506,-0.2609,-0.2641,-0.2562,-0.2691,-0.2639,-0.2658,-0.2599,-0.269,-0.2722,-0.275,-0.2403,-0.2403,-0.2403,0,0,-0.2062,-0.2084,-0.2127,-0.2159,-0.2179,-0.2216,-0.2242,-0.2258,-0.2308,-0.2332,-0.2381,-0.2397,-0.2466,-0.2485,-0.2522,-0.2593,-0.2539,-0.2603,-0.2623,-0.2641,-0.2595,-0.2688,-0.2716,-0.2404,-0.2404,-0.2404,0,0,-0.2048,-0.208,-0.2107,-0.2132,-0.218,-0.2199,-0.2224,-0.2243,-0.2306,-0.2317,-0.2334,-0.2348,-0.2473,-0.2395,-0.2411,-0.2471,-0.2357,-0.2358,-0.2597,-0.2621,-0.264,-0.2593,-0.2341,0,0,0,0,0,-0.2065,-0.2078,-0.2104,-0.2114,-0.2159,-0.2199,-0.2206,-0.2218,-0.2219,-0.2242,-0.2303,-0.2265,-0.2377,-0.2394,-0.2408,-0.2482,-0.2416,-0.2413,-0.2412,-0.2735,-0.2761,-0.2782,0,0,0,0,0,0,-0.2069,-0.2079,-0.2104,-0.2121,-0.2133,-0.2197,-0.2169,-0.2172,-0.2216,-0.2214,-0.2258,-0.2265,-0.2263,-0.2385,-0.2398,-0.2469,-0.2336,-0.2415,-0.2413,-0.2411,-0.2744,-0.2765,-0.2782,0,0,0,0,0,-0.2072,-0.208,-0.2146,-0.2121,-0.2131,-0.2159,-0.2167,-0.217,-0.2203,-0.2227,-0.2234,-0.2215,-0.2263,-0.2277,-0.2393,-0.2464,-0.2327,-0.2332,-0.2414,-0.2412,-0.2411,-0.2754,0,0,0,0,0,0,-0.2075,-0.2077,-0.2149,-0.2154,-0.211,-0.2156,-0.2161,-0.2168,-0.2214,-0.2221,-0.2182,-0.218,-0.2264,-0.2274,-0.2284,-0.2464,-0.232,-0.2325,-0.2328,-0.2413,-0.2411,-0.2411,0,0,0,0,0,0,-0.2074,-0.208,-0.2151,-0.2136,-0.2138,-0.2153,-0.2157,-0.2213,-0.2215,-0.2164,-0.2165,-0.2181,-0.2263,-0.2272,-0.228,-0.2365,-0.2314,-0.2319,-0.2322,-0.2324,-0.2412,-0.2411,0,0,0,0,0,0,-0.2077,-0.2083,-0.2134,-0.2136,-0.2138,-0.2186,-0.2203,-0.2254,-0.2186,-0.2162,-0.2183,-0.2182,-0.2263,-0.227,-0.2278,-0.2359,-0.2364,-0.2314,-0.2317,-0.232,-0.2321,0,0,0,0,0,0,0,-0.208,-0.2034,-0.2129,-0.2137,-0.2138,-0.2198,-0.2198,-0.2199,-0.2186,-0.2184,-0.2183,-0.2182,-0.2287,-0.2292,-0.2297,-0.2354,0,0,-0.2314,-0.2316,0,0,0,0,0,0,0,0,-0.2032,-0.2034,-0.2129,-0.213,-0.2132,-0.2198,-0.2198,-0.2199,-0.2185,-0.2184,-0.2183,-0.2183,-0.2288,-0.2292,-0.2297,0,0,0,0,0,0,0,0,0,0,0,0,0,0,0,-0.2129,-0.213,0,-0.2198,-0.2198,-0.2198,-0.2185,-0.2184,-0.2184,-0.2183,-0.2289,-0.2293,-0.2296,0,0,0,0,0,0,0,0,0,0,0,0,0,0,0,0,0,0,0,0,0,0,0,0,0,0,0,0,0,0,0,0,0,0,0,0,0,0,0,0,0,0,0,0,0,0,0,0,0,0,0,0,0,0,0,0,0,0,0,0,0,0,0,0,0,0,0,0,0]}],[{"header":{"parameterUnit":"kt","parameterCategory":2,"dx":1,"dy":1,"la1":30.253999710083008,"la2":30.299108505249023,"lo1":-89.0895004272461,"lo2":-89.04439544677734,"nx":28,"ny":28,"refTime":"2022-10-21T21:00:00:Z","depth":"4","parameterNumber":3,"parameterNumberName":"V-component_of_CURRENTS"},"data":[-0.1262,-0.1402,-0.1501,-0.164,-0.1741,-0.1866,-0.1918,-0.194,-0.1823,-0.1795,-0.1625,-0.1602,-0.1333,-0.1454,-0.11,-0.107,-0.1074,-0.0885,-0.0882,-0.0919,-0.0929,-0.0937,-0.0926,0,0,0,0,0,-0.1231,-0.1337,-0.1516,-0.1689,-0.1821,-0.1899,-0.1989,-0.2021,-0.2013,-0.1878,-0.185,-0.165,-0.1397,-0.1319,-0.1121,-0.121,-0.1033,-0.0986,-0.1023,-0.0925,-0.0935,-0.0921,0,0,0,0,0,0,-0.122,-0.1324,-0.1458,-0.1637,-0.1798,-0.188,-0.1962,-0.1939,-0.1963,-0.1922,-0.1864,-0.1701,-0.1627,-0.1386,-0.1204,-0.1034,-0.1009,-0.0988,-0.0994,-0.1003,-0.0999,-0.0973,-0.0926,0,0,0,0,0,-0.118,-0.124,-0.1367,-0.1562,-0.1714,-0.1849,-0.196,-0.1982,-0.2013,-0.2068,-0.1924,-0.179,-0.1628,-0.1395,-0.1235,-0.106,-0.1058,-0.1015,-0.102,-0.102,-0.0999,-0.0959,-0.0961,-0.0974,-0.0975,-0.0976,-0.0976,0,-0.1091,-0.1174,-0.137,-0.1482,-0.1571,-0.1736,-0.1833,-0.1921,-0.1949,-0.1976,-0.1974,-0.1889,-0.1793,-0.147,-0.1335,-0.1087,-0.1071,-0.1041,-0.1041,-0.1015,-0.0973,-0.0972,-0.0971,-0.0984,-0.0984,-0.0983,-0.0982,0,-0.1042,-0.1106,-0.1271,-0.1429,-0.1489,-0.1622,-0.1774,-0.185,-0.1895,-0.1938,-0.195,-0.1891,-0.1721,-0.1553,-0.1399,-0.1289,-0.1136,-0.1103,-0.1182,-0.1141,-0.0988,-0.0983,-0.0998,-0.0995,-0.0992,-0.099,-0.0988,0,-0.0965,-0.1077,-0.1181,-0.1266,-0.1444,-0.1503,-0.1654,-0.1716,-0.1767,-0.1807,-0.176,-0.1746,-0.1607,-0.1505,-0.1366,-0.1203,-0.1256,-0.1118,-0.1077,-0.1153,-0.1147,-0.1108,-0.1096,-0.1209,-0.1209,-0.121,-0.121,0,-0.0859,-0.1001,-0.1129,-0.118,-0.1319,-0.1408,-0.1484,-0.1542,-0.1595,-0.1624,-0.1644,-0.1584,-0.1565,-0.1474,-0.131,-0.1296,-0.1212,-0.1179,-0.1083,-0.1075,-0.1104,-0.1093,-0.121,-0.121,-0.121,-0.121,-0.121,0,-0.0787,-0.0856,-0.1008,-0.1152,-0.1184,-0.1281,-0.1397,-0.1461,-0.1487,-0.1487,-0.1476,-0.1415,-0.1398,-0.1327,-0.1248,-0.1232,-0.1197,-0.114,-0.1137,-0.102,-0.0932,-0.0914,-0.1059,-0.1058,-0.1057,-0.1057,-0.1056,0,-0.0691,-0.081,-0.0825,-0.0982,-0.1054,-0.1066,-0.115,-0.1203,-0.1206,-0.1247,-0.1204,-0.1243,-0.1158,-0.1166,-0.1157,-0.1081,-0.1109,-0.1095,-0.101,-0.1008,-0.0891,-0.1003,-0.1069,-0.1045,-0.1047,-0.1048,-0.1048,0,-0.0601,-0.0669,-0.0684,-0.0749,-0.0795,-0.085,-0.0925,-0.0991,-0.1036,-0.1035,-0.1092,-0.1123,-0.1068,-0.108,-0.1038,-0.1041,-0.1087,-0.0978,-0.0975,-0.0934,-0.1086,-0.0998,-0.0996,-0.1059,-0.1061,-0.1063,-0.1041,0,-0.0552,-0.0598,-0.062,-0.0666,-0.0705,-0.0761,-0.0772,-0.0807,-0.0796,-0.0799,-0.0855,-0.0832,-0.086,-0.0875,-0.0847,-0.0928,-0.0882,-0.0848,-0.0766,-0.0878,-0.0853,-0.086,-0.0751,-0.0749,-0.0747,-0.0746,0,0,-0.046,-0.0505,-0.0466,-0.0511,-0.0544,-0.0502,-0.0576,-0.0584,-0.0602,-0.0621,-0.0582,-0.0635,-0.0627,-0.07,-0.0748,-0.0746,-0.0725,-0.0719,-0.0835,-0.0846,-0.0855,-0.0837,-0.0845,-0.0742,-0.0742,-0.0741,-0.0741,0,-0.0432,-0.0413,-0.0444,-0.0467,-0.047,-0.0469,-0.0483,-0.0482,-0.0484,-0.0541,-0.0497,-0.0521,-0.0558,-0.057,-0.0581,-0.0711,-0.0638,-0.0728,-0.081,-0.0819,-0.0832,-0.0843,-0.0828,-0.0836,-0.0736,-0.0736,-0.0736,0,-0.037,-0.0356,-0.0367,-0.0379,-0.0371,-0.0419,-0.0346,-0.0367,-0.0416,-0.0331,-0.0384,-0.0371,-0.0374,-0.0442,-0.0468,-0.0431,-0.0548,-0.0522,-0.0533,-0.0534,-0.0537,-0.0554,-0.0568,-0.0372,-0.0371,-0.037,0,0,-0.0343,-0.0354,-0.0346,-0.037,-0.0369,-0.0348,-0.0348,-0.034,-0.0335,-0.0334,-0.0317,-0.0317,-0.0344,-0.0353,-0.0371,-0.0428,-0.0396,-0.0478,-0.0495,-0.0509,-0.0518,-0.0525,-0.0542,-0.0365,-0.0365,-0.0365,0,0,-0.0331,-0.0312,-0.0299,-0.0318,-0.0333,-0.0313,-0.0319,-0.0299,-0.0305,-0.0292,-0.0246,-0.0242,-0.0299,-0.0283,-0.0228,-0.0354,-0.0285,-0.0295,-0.0354,-0.0375,-0.0392,-0.0395,-0.0157,0,0,0,0,0,-0.0293,-0.0316,-0.0305,-0.0304,-0.0295,-0.0323,-0.0321,-0.0287,-0.0243,-0.0275,-0.0252,-0.0206,-0.0262,-0.0211,-0.021,-0.0271,-0.0307,-0.0317,-0.0327,-0.0418,-0.044,-0.0459,0,0,0,0,0,0,-0.0293,-0.0294,-0.0303,-0.0284,-0.028,-0.0321,-0.0253,-0.0245,-0.0241,-0.0235,-0.0211,-0.0205,-0.0177,-0.0208,-0.0208,-0.0268,-0.0157,-0.0311,-0.032,-0.0328,-0.0425,-0.0444,-0.046,0,0,0,0,0,-0.0292,-0.0293,-0.029,-0.0282,-0.028,-0.024,-0.0252,-0.0245,-0.0246,-0.0206,-0.02,-0.0219,-0.0178,-0.0176,-0.0208,-0.027,-0.0157,-0.0157,-0.0317,-0.0324,-0.033,-0.0434,0,0,0,0,0,0,-0.0291,-0.029,-0.0288,-0.0285,-0.0267,-0.0238,-0.0235,-0.0245,-0.0217,-0.021,-0.0212,-0.0208,-0.018,-0.0178,-0.0176,-0.0274,-0.0157,-0.0157,-0.0157,-0.0322,-0.0327,-0.0332,0,0,0,0,0,0,-0.0288,-0.0288,-0.0287,-0.027,-0.0264,-0.0237,-0.0234,-0.024,-0.0217,-0.0225,-0.022,-0.021,-0.0178,-0.0179,-0.0178,-0.0189,-0.0157,-0.0157,-0.0157,-0.0157,-0.0326,-0.0331,0,0,0,0,0,0,-0.0287,-0.0287,-0.027,-0.0267,-0.0262,-0.023,-0.0242,-0.0235,-0.0202,-0.0227,-0.0197,-0.0195,-0.0181,-0.0179,-0.0179,-0.0192,-0.019,-0.0157,-0.0157,-0.0157,-0.0157,0,0,0,0,0,0,0,-0.0286,-0.0301,-0.0301,-0.0264,-0.026,-0.0258,-0.0257,-0.0257,-0.0201,-0.0199,-0.0198,-0.0196,-0.0157,-0.0157,-0.0157,-0.0193,0,0,-0.0157,-0.0157,0,0,0,0,0,0,0,0,-0.03,-0.0301,-0.0301,-0.03,-0.0299,-0.0258,-0.0257,-0.0257,-0.0201,-0.0199,-0.0198,-0.0197,-0.0157,-0.0157,-0.0157,0,0,0,0,0,0,0,0,0,0,0,0,0,0,0,-0.0301,-0.03,0,-0.0257,-0.0257,-0.0257,-0.0201,-0.02,-0.0198,-0.0197,-0.0157,-0.0157,-0.0157,0,0,0,0,0,0,0,0,0,0,0,0,0,0,0,0,0,0,0,0,0,0,0,0,0,0,0,0,0,0,0,0,0,0,0,0,0,0,0,0,0,0,0,0,0,0,0,0,0,0,0,0,0,0,0,0,0,0,0,0,0,0,0,0,0,0,0,0,0]}]]]